[[{"header":{"parameterUnit":"m.s-1","parameterCategory":1,"la1":30.2991,"la2":30.254,"lo1":-89.0895,"lo2":-89.0444,"dy":0.0017,"dx":0.0017,"nx":28,"ny":28,"refTime":"2026-02-02T09:00:00:Z","depth":0,"parameterNumber":2,"parameterNumberName":"U-component_of_WINDS"},"data":[0,0,0,0,0,0,0,0,0,0,0,0,0,0,0,0,0,0,0,0,0,0,0,0,0,0,0,0,0,0,0,0,0,0,0,0,0,0,0,0,0,0,0,0,0,0,0,0,0,0,0,0,0,0,0,0,0,0,2.0312,2.0313,0,2.0355,2.0355,2.0356,2.0353,2.0353,2.0352,2.0352,2.0395,2.0397,2.0399,0,0,0,0,0,0,0,0,0,0,0,0,0,2.023,2.0231,2.0312,2.0313,2.0313,2.0355,2.0355,2.0356,2.0353,2.0353,2.0352,2.0351,2.0395,2.0397,2.0399,0,0,0,0,0,0,0,0,0,0,0,0,0,2.0268,2.0232,2.0312,2.0317,2.0318,2.0354,2.0355,2.0356,2.0354,2.0353,2.0352,2.0351,2.0394,2.0397,2.0399,2.0434,0,0,2.0407,2.0408,0,0,0,0,0,0,0,0,2.0266,2.0271,2.0316,2.0317,2.0318,2.0348,2.0342,2.0382,2.0354,2.034,2.0352,2.035,2.038,2.0384,2.0394,2.0436,2.0438,2.0407,2.0409,2.041,2.0411,0,0,0,0,0,0,0,2.0263,2.0269,2.0329,2.0316,2.0318,2.0317,2.0322,2.035,2.0365,2.0341,2.0341,2.0346,2.0381,2.0391,2.0395,2.0438,2.0407,2.041,2.0411,2.0412,2.0511,2.0512,0,0,0,0,0,0,2.0259,2.0267,2.0328,2.033,2.0289,2.032,2.0325,2.0339,2.0365,2.0368,2.0347,2.0346,2.0387,2.0392,2.0397,2.0439,2.041,2.0413,2.0414,2.051,2.0511,2.0512,0,0,0,0,0,0,2.0258,2.0265,2.0326,2.0299,2.0306,2.0322,2.0338,2.034,2.0351,2.0369,2.0372,2.0355,2.0387,2.0393,2.0425,2.044,2.0414,2.0416,2.0508,2.051,2.0512,2.0523,0,0,0,0,0,0,2.0255,2.0264,2.0277,2.0299,2.0308,2.0353,2.0339,2.0342,2.0356,2.0355,2.0377,2.038,2.0387,2.0421,2.0427,2.0443,2.0418,2.0507,2.0509,2.0511,2.0521,2.0525,2.0528,0,0,0,0,0,2.0252,2.0279,2.0278,2.0285,2.0324,2.0354,2.0359,2.0366,2.0357,2.037,2.0382,2.0379,2.0437,2.0424,2.0431,2.0448,2.0506,2.0509,2.0511,2.052,2.0524,2.0528,0,0,0,0,0,0,2.0258,2.0282,2.0281,2.0315,2.0333,2.0353,2.037,2.037,2.039,2.0389,2.0397,2.0402,2.0434,2.0444,2.0429,2.0483,2.0471,2.0475,2.0475,2.0479,2.0482,2.0479,2.042,0,0,0,0,0,2.0264,2.0285,2.0305,2.0333,2.0342,2.0355,2.0368,2.0372,2.039,2.0397,2.0411,2.0429,2.0451,2.0466,2.0487,2.0523,2.0528,2.0538,2.0541,2.0544,2.0547,2.0567,2.0572,2.052,2.052,2.052,0,0,2.0275,2.029,2.0303,2.0335,2.0349,2.0371,2.0361,2.0385,2.0402,2.0401,2.0432,2.0442,2.0463,2.0497,2.0512,2.0507,2.0563,2.0547,2.0549,2.0551,2.057,2.0575,2.0579,2.0521,2.0521,2.0521,0,0,2.0306,2.032,2.0346,2.036,2.0381,2.039,2.0396,2.0417,2.0424,2.0455,2.0455,2.0475,2.0513,2.0528,2.0541,2.0579,2.0577,2.0586,2.0602,2.0621,2.0625,2.0629,2.0643,2.0647,2.0589,2.0589,2.0589,0,2.0317,2.0351,2.0359,2.0383,2.0397,2.0397,2.0423,2.0437,2.0464,2.0473,2.0467,2.0515,2.0529,2.0566,2.0575,2.0586,2.0593,2.0583,2.0624,2.0628,2.0632,2.0645,2.065,2.059,2.059,2.0589,2.0589,0,2.0364,2.0388,2.0406,2.0432,2.0448,2.0473,2.0484,2.0499,2.0502,2.0511,2.0543,2.056,2.0585,2.0594,2.0597,2.0632,2.0628,2.0623,2.061,2.0637,2.0649,2.0655,2.0591,2.0591,2.059,2.059,0,0,2.04,2.0431,2.0437,2.0449,2.0473,2.0491,2.0517,2.0541,2.0554,2.0573,2.0595,2.0627,2.0623,2.0637,2.0642,2.0658,2.0687,2.0651,2.0652,2.0657,2.0727,2.073,2.0736,2.0687,2.0688,2.0689,2.0725,0,2.0434,2.0479,2.0486,2.0525,2.0547,2.0548,2.0571,2.0588,2.0597,2.0617,2.0628,2.0651,2.0643,2.0652,2.0669,2.068,2.0702,2.0678,2.0707,2.0708,2.0701,2.0742,2.0746,2.078,2.073,2.0731,2.0732,0,2.0479,2.05,2.0541,2.0563,2.0572,2.0592,2.0615,2.0634,2.0654,2.066,2.0676,2.0679,2.0705,2.0692,2.0728,2.0712,2.0724,2.0732,2.0734,2.0736,2.0721,2.0746,2.0791,2.0796,2.0739,2.0739,2.0738,0,2.0501,2.0539,2.0569,2.0579,2.0605,2.0619,2.063,2.0649,2.0663,2.0684,2.0693,2.0716,2.0729,2.0747,2.0756,2.0746,2.0792,2.078,2.0798,2.0797,2.0807,2.0806,2.0854,2.0815,2.0815,2.0815,2.0815,0,2.0538,2.0563,2.0579,2.0597,2.0626,2.0634,2.0662,2.0673,2.069,2.0711,2.0713,2.0732,2.0743,2.0764,2.0772,2.0801,2.0807,2.0812,2.0813,2.0811,2.0811,2.0819,2.0817,2.0817,2.0816,2.0816,2.0816,0,2.0567,2.0578,2.0611,2.0633,2.0639,2.0659,2.0678,2.0696,2.0705,2.0731,2.0738,2.0753,2.0778,2.0789,2.0819,2.0824,2.0858,2.0858,2.0851,2.0851,2.0869,2.0867,2.0923,2.0931,2.0888,2.0888,2.0889,0,2.0589,2.0609,2.0633,2.0647,2.0659,2.0682,2.0696,2.0706,2.0721,2.0746,2.0761,2.0785,2.0806,2.0845,2.0859,2.0882,2.0883,2.0901,2.0886,2.0884,2.0883,2.0881,2.0883,2.0904,2.0904,2.0904,2.0905,0,2.0628,2.0633,2.0654,2.0678,2.0696,2.0715,2.0733,2.0745,2.0757,2.0774,2.08,2.0816,2.0847,2.0871,2.0896,2.0908,2.0908,2.0909,2.0915,2.0912,2.0908,2.091,2.0858,2.0908,2.0907,2.0907,2.0907,2.0907,2.0654,2.0672,2.0692,2.0716,2.0731,2.0748,2.0766,2.0778,2.08,2.0826,2.0831,2.0858,2.0877,2.091,2.0923,2.0944,2.094,2.0947,2.0949,2.0951,2.0952,2.0905,2.0949,2.0949,2.0949,2.0948,2.0948,0,2.0693,2.0706,2.0728,2.0754,2.0773,2.0772,2.0793,2.0809,2.0833,2.0851,2.0871,2.09,2.0925,2.094,2.0965,2.0979,2.098,2.0985,2.0984,2.0986,2.0955,2.0947,2.0984,2.0984,2.0984,2.0984,2.0984,2.0984,2.0715,2.0745,2.0752,2.0789,2.0802,2.0829,2.0841,2.0857,2.0872,2.0905,2.0925,2.0935,2.0953,2.0978,2.1001,2.1005,2.1013,2.1019,2.1022,2.0992,2.0989,2.0985,2.0978,2.1021,2.1021,2.1052,2.1053,2.1053]},{"header":{"parameterUnit":"m.s-1","parameterCategory":1,"la1":30.2991,"la2":30.254,"lo1":-89.0895,"lo2":-89.0444,"dy":0.0017,"dx":0.0017,"nx":28,"ny":28,"refTime":"2026-02-02T09:00:00:Z","depth":0,"parameterNumber":3,"parameterNumberName":"V-component_of_WINDS"},"data":[0,0,0,0,0,0,0,0,0,0,0,0,0,0,0,0,0,0,0,0,0,0,0,0,0,0,0,0,0,0,0,0,0,0,0,0,0,0,0,0,0,0,0,0,0,0,0,0,0,0,0,0,0,0,0,0,0,0,5.0744,5.0747,0,5.0952,5.0954,5.0956,5.0991,5.0989,5.0987,5.0986,5.1197,5.1204,5.1211,0,0,0,0,0,0,0,0,0,0,0,0,0,5.0378,5.0384,5.0744,5.0747,5.0749,5.0951,5.0954,5.0957,5.0991,5.0989,5.0987,5.0985,5.1194,5.1203,5.1211,0,0,0,0,0,0,0,0,0,0,0,0,0,5.0556,5.0386,5.0744,5.0791,5.0797,5.0951,5.0954,5.0958,5.0992,5.0989,5.0986,5.0984,5.1191,5.1202,5.1213,5.1333,0,0,5.1246,5.1251,0,0,0,0,0,0,0,0,5.0546,5.0569,5.0781,5.0788,5.0795,5.0943,5.0902,5.1084,5.0992,5.0918,5.0986,5.0983,5.1114,5.1131,5.1176,5.1343,5.1352,5.1247,5.1254,5.1258,5.1261,0,0,0,0,0,0,0,5.0533,5.0561,5.0826,5.0784,5.0793,5.0802,5.0824,5.0937,5.1028,5.0924,5.0927,5.0951,5.1117,5.1165,5.1181,5.1355,5.1247,5.1256,5.1263,5.1267,5.1634,5.1637,0,0,0,0,0,0,5.0513,5.055,5.082,5.0832,5.0661,5.081,5.0835,5.0898,5.1027,5.1044,5.0953,5.0952,5.1148,5.1168,5.1189,5.1341,5.1258,5.1268,5.1275,5.1631,5.1635,5.1639,0,0,0,0,0,0,5.0505,5.0536,5.0811,5.0692,5.0728,5.0819,5.0889,5.0903,5.0952,5.1049,5.1066,5.0986,5.1147,5.1173,5.1298,5.1348,5.1273,5.1283,5.1627,5.1632,5.1637,5.1644,0,0,0,0,0,0,5.0494,5.0533,5.058,5.0693,5.0734,5.0917,5.0893,5.0909,5.097,5.0971,5.1084,5.11,5.1147,5.1281,5.1309,5.1362,5.1292,5.1623,5.163,5.1635,5.164,5.1649,5.1656,0,0,0,0,0,5.0481,5.0573,5.0582,5.0615,5.0795,5.092,5.0943,5.0996,5.0974,5.1022,5.1085,5.1096,5.1338,5.1294,5.1325,5.1382,5.162,5.1628,5.1635,5.1636,5.1647,5.1656,0,0,0,0,0,0,5.0463,5.0589,5.06,5.0732,5.0815,5.0925,5.0988,5.1005,5.1095,5.1092,5.1152,5.1177,5.1299,5.1353,5.1301,5.1507,5.1478,5.1491,5.1468,5.1479,5.1487,5.1472,5.1301,0,0,0,0,0,5.0474,5.0566,5.067,5.0776,5.0818,5.0895,5.0952,5.0985,5.1073,5.1108,5.118,5.1266,5.1361,5.1422,5.1515,5.1647,5.1673,5.1702,5.171,5.1716,5.1728,5.1804,5.1819,5.1662,5.1662,5.1662,0,0,5.0499,5.0579,5.0633,5.0775,5.0843,5.0937,5.0925,5.1024,5.1094,5.1123,5.1246,5.1302,5.1401,5.153,5.1591,5.1579,5.1777,5.1725,5.1729,5.1738,5.1813,5.1828,5.1841,5.1667,5.1666,5.1665,0,0,5.0592,5.066,5.0758,5.0827,5.0931,5.0982,5.1005,5.1114,5.1152,5.1277,5.1301,5.1385,5.1547,5.1618,5.1675,5.1796,5.181,5.1824,5.1867,5.1941,5.1953,5.1964,5.201,5.2025,5.1835,5.1835,5.1835,0,5.0609,5.0752,5.0805,5.0905,5.0967,5.0998,5.1098,5.1162,5.129,5.1333,5.1317,5.1524,5.1592,5.1739,5.1769,5.1813,5.1843,5.1812,5.1947,5.1959,5.197,5.2014,5.2031,5.1836,5.1836,5.1836,5.1836,0,5.0769,5.0868,5.0933,5.1059,5.1128,5.1227,5.1296,5.136,5.1387,5.1439,5.1566,5.165,5.1761,5.1798,5.1825,5.195,5.194,5.1935,5.1907,5.1986,5.2028,5.2045,5.1838,5.1837,5.1837,5.1837,0,0,5.0857,5.1012,5.1035,5.1093,5.1211,5.1288,5.1388,5.1498,5.1553,5.164,5.1727,5.1864,5.1861,5.1926,5.196,5.2024,5.2118,5.2012,5.2016,5.2031,5.2264,5.2269,5.2288,5.2127,5.2131,5.2133,5.2257,0,5.0966,5.1148,5.1199,5.1352,5.1445,5.1476,5.1564,5.1645,5.1697,5.1784,5.1841,5.1938,5.1925,5.1965,5.2029,5.2093,5.2166,5.2084,5.221,5.2214,5.2187,5.231,5.2315,5.2427,5.2273,5.2276,5.2278,0,5.1118,5.121,5.1373,5.148,5.1521,5.1599,5.1705,5.1787,5.188,5.1914,5.1986,5.2016,5.2122,5.2087,5.2235,5.2179,5.2233,5.2272,5.2277,5.2293,5.2253,5.2331,5.2464,5.2482,5.2305,5.2302,5.2301,0,5.117,5.1334,5.1453,5.1501,5.1629,5.1684,5.1739,5.183,5.1893,5.1985,5.2028,5.213,5.2187,5.2266,5.2323,5.2291,5.2467,5.2436,5.2499,5.2498,5.2537,5.2534,5.2683,5.2567,5.2567,5.2566,5.2566,0,5.1288,5.1386,5.1479,5.1552,5.1664,5.1722,5.1831,5.1888,5.1969,5.2054,5.2086,5.2166,5.2234,5.2323,5.2368,5.2486,5.251,5.2541,5.2552,5.254,5.2536,5.2578,5.2573,5.2571,5.257,5.2569,5.2568,0,5.1365,5.143,5.1563,5.1673,5.1703,5.1781,5.1876,5.1949,5.2002,5.211,5.2138,5.2222,5.2328,5.2392,5.2526,5.2556,5.2687,5.2694,5.2656,5.2662,5.2723,5.2717,5.2906,5.2935,5.2797,5.2798,5.2799,0,5.1437,5.1514,5.1633,5.1693,5.175,5.1846,5.1911,5.1971,5.2038,5.2151,5.2211,5.2319,5.241,5.2578,5.2651,5.2754,5.2765,5.2824,5.2781,5.2767,5.277,5.2766,5.2775,5.2832,5.2833,5.2834,5.2835,0,5.1559,5.1588,5.1682,5.1787,5.1864,5.195,5.2035,5.2082,5.2156,5.223,5.234,5.241,5.2548,5.2656,5.2766,5.2823,5.2843,5.2848,5.2869,5.2858,5.2835,5.2851,5.2679,5.2844,5.2843,5.2842,5.2842,5.2841,5.1639,5.1709,5.1805,5.1909,5.1979,5.2058,5.2133,5.2196,5.2289,5.2407,5.2436,5.2552,5.2645,5.2794,5.2854,5.2946,5.2937,5.2966,5.2974,5.2981,5.2984,5.2818,5.2965,5.2965,5.2965,5.2965,5.2965,0,5.1765,5.1828,5.1922,5.2042,5.2123,5.2134,5.2229,5.2297,5.2399,5.2484,5.2573,5.27,5.2805,5.2886,5.2994,5.3052,5.3064,5.3079,5.3077,5.309,5.2984,5.2957,5.3068,5.3068,5.3068,5.3068,5.3068,5.3068,5.184,5.1962,5.2002,5.2159,5.2222,5.2337,5.239,5.2464,5.2533,5.2674,5.2762,5.2814,5.2898,5.3013,5.311,5.3132,5.3171,5.3185,5.3208,5.3108,5.3097,5.3087,5.3062,5.3192,5.3193,5.3307,5.3308,5.3309]}]]